******** Week 147 almanac for PRN-1 ******** ID: 1 Health: 0 Eccentricity: 0.01132106781 Time of Applicability(s): 61440 Orbital Inclination(rad): 0.986489862 Rate of Right Ascen(r/s): -8.137481816e-09 SQRT(A) (m 1/2): 5153.622559 Right Ascen at Week(rad): -1.659300952 Argument of Perigee(rad): 0.8828887098 Mean Anom(rad): 3.092573055 Af0(s): 0.0003512122314 Af1(s/s): -1.091394e-11 week: 147 ******** Week 147 almanac for PRN-2 ******** ID: 2 Health: 0 Eccentricity: 0.02068185806 Time of Applicability(s): 61440 Orbital Inclination(rad): 0.9648343676 Rate of Right Ascen(r/s): -8.251772291e-09 SQRT(A) (m 1/2): 5153.631836 Right Ascen at Week(rad): -1.748284945 Argument of Perigee(rad): -1.449843665 Mean Anom(rad): -3.035307186 Af0(s): -0.0005132522095 Af1(s/s): 0 week: 147 ******** Week 147 almanac for PRN-3 ******** ID: 3 Health: 0 Eccentricity: 0.003856182098 Time of Applicability(s): 61440 Orbital Inclination(rad): 0.9725881612 Rate of Right Ascen(r/s): -7.726036106e-09 SQRT(A) (m 1/2): 5153.650391 Right Ascen at Week(rad): -0.6237298462 Argument of Perigee(rad): 0.968925333 Mean Anom(rad): 1.930328692 Af0(s): -7.913580322e-05 Af1(s/s): -1.455192e-11 week: 147 ******** Week 147 almanac for PRN-4 ******** ID: 4 Health: 0 Eccentricity: 0.001683712006 Time of Applicability(s): 61440 Orbital Inclination(rad): 0.9613169976 Rate of Right Ascen(r/s): -7.657461821e-09 SQRT(A) (m 1/2): 5153.606445 Right Ascen at Week(rad): 0.4570599872 Argument of Perigee(rad): -3.084688559 Mean Anom(rad): -1.386292069 Af0(s): -0.0001522422119 Af1(s/s): 3.637979e-12 week: 147 ******** Week 147 almanac for PRN-5 ******** ID: 5 Health: 0 Eccentricity: 0.005866527557 Time of Applicability(s): 61440 Orbital Inclination(rad): 0.9595553166 Rate of Right Ascen(r/s): -7.886042771e-09 SQRT(A) (m 1/2): 5153.614746 Right Ascen at Week(rad): -0.6639129523 Argument of Perigee(rad): 1.011950947 Mean Anom(rad): -0.5404709416 Af0(s): -5.50182251e-05 Af1(s/s): 0 week: 147 ******** Week 147 almanac for PRN-6 ******** ID: 6 Health: 0 Eccentricity: 0.002657413483 Time of Applicability(s): 61440 Orbital Inclination(rad): 0.9858726745 Rate of Right Ascen(r/s): -8.126052768e-09 SQRT(A) (m 1/2): 5153.612305 Right Ascen at Week(rad): -1.667573438 Argument of Perigee(rad): -0.9798253601 Mean Anom(rad): -2.840276284 Af0(s): 0.0001469664917 Af1(s/s): 1.091394e-11 week: 147 ******** Week 147 almanac for PRN-7 ******** ID: 7 Health: 0 Eccentricity: 0.01547431946 Time of Applicability(s): 61440 Orbital Inclination(rad): 0.950519211 Rate of Right Ascen(r/s): -8.080336578e-09 SQRT(A) (m 1/2): 5153.627441 Right Ascen at Week(rad): 1.476277869 Argument of Perigee(rad): -2.293761173 Mean Anom(rad): 2.427842554 Af0(s): 0.0002419294556 Af1(s/s): 3.637979e-12 week: 147 ******** Week 147 almanac for PRN-8 ******** ID: 8 Health: 0 Eccentricity: 0.007224559784 Time of Applicability(s): 61440 Orbital Inclination(rad): 0.9651879023 Rate of Right Ascen(r/s): -7.828897533e-09 SQRT(A) (m 1/2): 5153.671387 Right Ascen at Week(rad): -2.738935057 Argument of Perigee(rad): 0.09168980676 Mean Anom(rad): -0.9073133092 Af0(s): -4.295943603e-05 Af1(s/s): 0 week: 147 ******** Week 147 almanac for PRN-9 ******** ID: 9 Health: 0 Eccentricity: 0.002299308777 Time of Applicability(s): 61440 Orbital Inclination(rad): 0.9543361866 Rate of Right Ascen(r/s): -7.737465153e-09 SQRT(A) (m 1/2): 5153.579102 Right Ascen at Week(rad): 0.4042451335 Argument of Perigee(rad): 1.869165703 Mean Anom(rad): -0.5655408166 Af0(s): -0.00028112052 Af1(s/s): 0 week: 147 ******** Week 147 almanac for PRN-10 ******** ID: 10 Health: 0 Eccentricity: 0.007493972778 Time of Applicability(s): 61440 Orbital Inclination(rad): 0.9724143899 Rate of Right Ascen(r/s): -7.703178011e-09 SQRT(A) (m 1/2): 5153.640137 Right Ascen at Week(rad): -0.6265221706 Argument of Perigee(rad): -2.524952601 Mean Anom(rad): 1.072688123 Af0(s): -0.0002426831299 Af1(s/s): -1.091394e-11 week: 147 ******** Week 147 almanac for PRN-11 ******** ID: 11 Health: 255 Eccentricity: 0.0002903938293 Time of Applicability(s): 61440 Orbital Inclination(rad): 0.9615986269 Rate of Right Ascen(r/s): -8.354633718e-09 SQRT(A) (m 1/2): 5153.712402 Right Ascen at Week(rad): -1.615137585 Argument of Perigee(rad): 2.843659581 Mean Anom(rad): -1.033397092 Af0(s): -7.536743164e-05 Af1(s/s): -4.001777e-11 week: 147 ******** Week 147 almanac for PRN-12 ******** ID: 12 Health: 0 Eccentricity: 0.008630275726 Time of Applicability(s): 61440 Orbital Inclination(rad): 0.9706407246 Rate of Right Ascen(r/s): -7.566029441e-09 SQRT(A) (m 1/2): 5153.565918 Right Ascen at Week(rad): 2.589030379 Argument of Perigee(rad): 1.23951153 Mean Anom(rad): 1.771016024 Af0(s): -0.0001296319824 Af1(s/s): -7.275958e-12 week: 147 ******** Week 147 almanac for PRN-13 ******** ID: 13 Health: 0 Eccentricity: 0.005795478821 Time of Applicability(s): 61440 Orbital Inclination(rad): 0.9687052723 Rate of Right Ascen(r/s): -7.600316584e-09 SQRT(A) (m 1/2): 5153.623535 Right Ascen at Week(rad): 0.5567994481 Argument of Perigee(rad): 0.9662127786 Mean Anom(rad): -1.502360786 Af0(s): 0.0002004773682 Af1(s/s): 7.275958e-12 week: 147 ******** Week 147 almanac for PRN-14 ******** ID: 14 Health: 0 Eccentricity: 0.00136423111 Time of Applicability(s): 61440 Orbital Inclination(rad): 0.9540305889 Rate of Right Ascen(r/s): -7.680319916e-09 SQRT(A) (m 1/2): 5153.597656 Right Ascen at Week(rad): 2.55799985 Argument of Perigee(rad): 3.034628579 Mean Anom(rad): 1.816668056 Af0(s): -6.104761963e-05 Af1(s/s): -3.637979e-12 week: 147 ******** Week 147 almanac for PRN-15 ******** ID: 15 Health: 0 Eccentricity: 0.0139169693 Time of Applicability(s): 61440 Orbital Inclination(rad): 0.9302478946 Rate of Right Ascen(r/s): -7.908900866e-09 SQRT(A) (m 1/2): 5153.677246 Right Ascen at Week(rad): 0.2986427652 Argument of Perigee(rad): 1.073265613 Mean Anom(rad): -1.912892394 Af0(s): -6.933803711e-05 Af1(s/s): 3.637979e-12 week: 147 ******** Week 147 almanac for PRN-16 ******** ID: 16 Health: 0 Eccentricity: 0.01271390915 Time of Applicability(s): 61440 Orbital Inclination(rad): 0.9706167562 Rate of Right Ascen(r/s): -7.531742299e-09 SQRT(A) (m 1/2): 5153.551758 Right Ascen at Week(rad): 2.607650494 Argument of Perigee(rad): 0.7010749102 Mean Anom(rad): -0.08422326013 Af0(s): -0.0003655320435 Af1(s/s): -3.637979e-12 week: 147 ******** Week 147 almanac for PRN-17 ******** ID: 17 Health: 0 Eccentricity: 0.01366281509 Time of Applicability(s): 61440 Orbital Inclination(rad): 0.980252073 Rate of Right Ascen(r/s): -7.737465153e-09 SQRT(A) (m 1/2): 5153.709961 Right Ascen at Week(rad): -2.657304134 Argument of Perigee(rad): -1.502148066 Mean Anom(rad): -1.002687142 Af0(s): 0.0004491898926 Af1(s/s): 3.637979e-12 week: 147 ******** Week 147 almanac for PRN-18 ******** ID: 18 Health: 0 Eccentricity: 0.002095222473 Time of Applicability(s): 61440 Orbital Inclination(rad): 0.9702811979 Rate of Right Ascen(r/s): -8.286059433e-09 SQRT(A) (m 1/2): 5153.573242 Right Ascen at Week(rad): -1.651243059 Argument of Perigee(rad): 3.1060995 Mean Anom(rad): -2.993745145 Af0(s): 0.0001982163452 Af1(s/s): -7.275958e-12 week: 147 ******** Week 147 almanac for PRN-19 ******** ID: 19 Health: 0 Eccentricity: 0.008953094482 Time of Applicability(s): 61440 Orbital Inclination(rad): 0.9789637688 Rate of Right Ascen(r/s): -7.771752296e-09 SQRT(A) (m 1/2): 5153.641602 Right Ascen at Week(rad): -2.612418343 Argument of Perigee(rad): 2.001267439 Mean Anom(rad): 1.404040332 Af0(s): 8.893356934e-05 Af1(s/s): 3.637979e-12 week: 147 ******** Week 147 almanac for PRN-20 ******** ID: 20 Health: 0 Eccentricity: 0.005242824554 Time of Applicability(s): 61440 Orbital Inclination(rad): 0.9416808451 Rate of Right Ascen(r/s): -8.114623721e-09 SQRT(A) (m 1/2): 5153.688477 Right Ascen at Week(rad): -0.7776387526 Argument of Perigee(rad): 3.119791103 Mean Anom(rad): -2.153405676 Af0(s): 0.0004084914795 Af1(s/s): 0 week: 147 ******** Week 147 almanac for PRN-21 ******** ID: 21 Health: 0 Eccentricity: 0.02456188202 Time of Applicability(s): 61440 Orbital Inclination(rad): 0.9590879318 Rate of Right Ascen(r/s): -8.297488481e-09 SQRT(A) (m 1/2): 5153.535645 Right Ascen at Week(rad): -1.74981593 Argument of Perigee(rad): -1.015887391 Mean Anom(rad): -0.8292495662 Af0(s): 0.0001243562622 Af1(s/s): 0 week: 147 ******** Week 147 almanac for PRN-22 ******** ID: 22 Health: 0 Eccentricity: 0.01280689239 Time of Applicability(s): 61440 Orbital Inclination(rad): 0.961442832 Rate of Right Ascen(r/s): -7.646032773e-09 SQRT(A) (m 1/2): 5153.599609 Right Ascen at Week(rad): 0.5053560391 Argument of Perigee(rad): -1.876003452 Mean Anom(rad): -1.138860519 Af0(s): 0.0001627936523 Af1(s/s): 7.275958e-12 week: 147 ******** Week 147 almanac for PRN-23 ******** ID: 23 Health: 0 Eccentricity: 0.001979351044 Time of Applicability(s): 61440 Orbital Inclination(rad): 0.9674529208 Rate of Right Ascen(r/s): -7.771752296e-09 SQRT(A) (m 1/2): 5153.659668 Right Ascen at Week(rad): -0.651293938 Argument of Perigee(rad): 2.946013849 Mean Anom(rad): 2.399189022 Af0(s): 4.522045898e-06 Af1(s/s): -3.637979e-12 week: 147 ******** Week 147 almanac for PRN-24 ******** ID: 24 Health: 0 Eccentricity: 0.01232099533 Time of Applicability(s): 61440 Orbital Inclination(rad): 0.9340289175 Rate of Right Ascen(r/s): -8.251772291e-09 SQRT(A) (m 1/2): 5153.623047 Right Ascen at Week(rad): 1.393755994 Argument of Perigee(rad): 0.8050272006 Mean Anom(rad): -2.889623577 Af0(s): 0.0002185655518 Af1(s/s): 0 week: 147 ******** Week 147 almanac for PRN-25 ******** ID: 25 Health: 0 Eccentricity: 0.01044178009 Time of Applicability(s): 61440 Orbital Inclination(rad): 0.9580033594 Rate of Right Ascen(r/s): -7.691748963e-09 SQRT(A) (m 1/2): 5153.668457 Right Ascen at Week(rad): 2.512525335 Argument of Perigee(rad): 0.9744099884 Mean Anom(rad): 1.52787932 Af0(s): 0.0002200729004 Af1(s/s): 7.275958e-12 week: 147 ******** Week 147 almanac for PRN-26 ******** ID: 26 Health: 0 Eccentricity: 0.006844997406 Time of Applicability(s): 61440 Orbital Inclination(rad): 0.9388226075 Rate of Right Ascen(r/s): -7.874613723e-09 SQRT(A) (m 1/2): 5153.637207 Right Ascen at Week(rad): 2.465839663 Argument of Perigee(rad): 0.3580137389 Mean Anom(rad): 0.8774527403 Af0(s): 0.0001416907715 Af1(s/s): 3.637979e-12 week: 147 ******** Week 147 almanac for PRN-27 ******** ID: 27 Health: 0 Eccentricity: 0.0101313591 Time of Applicability(s): 61440 Orbital Inclination(rad): 0.9738764653 Rate of Right Ascen(r/s): -7.760323248e-09 SQRT(A) (m 1/2): 5153.609863 Right Ascen at Week(rad): -2.719645323 Argument of Perigee(rad): 0.6330861553 Mean Anom(rad): -0.9648132458 Af0(s): 7.612110596e-05 Af1(s/s): 1.818989e-11 week: 147 ******** Week 147 almanac for PRN-29 ******** ID: 29 Health: 0 Eccentricity: 0.001794815063 Time of Applicability(s): 61440 Orbital Inclination(rad): 0.9822414543 Rate of Right Ascen(r/s): -7.737465153e-09 SQRT(A) (m 1/2): 5153.719238 Right Ascen at Week(rad): -2.644330087 Argument of Perigee(rad): 2.268195826 Mean Anom(rad): -0.8444185989 Af0(s): -0.0003745761353 Af1(s/s): -3.637979e-12 week: 147 ******** Week 147 almanac for PRN-30 ******** ID: 30 Health: 0 Eccentricity: 0.005454063415 Time of Applicability(s): 61440 Orbital Inclination(rad): 0.9356947248 Rate of Right Ascen(r/s): -8.240343243e-09 SQRT(A) (m 1/2): 5153.511719 Right Ascen at Week(rad): 1.489661627 Argument of Perigee(rad): -2.750236181 Mean Anom(rad): 2.454614564 Af0(s): -0.0004032157593 Af1(s/s): -3.637979e-12 week: 147 ******** Week 147 almanac for PRN-31 ******** ID: 31 Health: 0 Eccentricity: 0.0104675293 Time of Applicability(s): 61440 Orbital Inclination(rad): 0.9547496424 Rate of Right Ascen(r/s): -8.023191341e-09 SQRT(A) (m 1/2): 5153.612305 Right Ascen at Week(rad): 1.494316 Argument of Perigee(rad): 0.3720779759 Mean Anom(rad): 1.975036218 Af0(s): -0.0001281246338 Af1(s/s): -3.637979e-12 week: 147 ******** Week 147 almanac for PRN-32 ******** ID: 32 Health: 0 Eccentricity: 0.00550031662 Time of Applicability(s): 61440 Orbital Inclination(rad): 0.958195107 Rate of Right Ascen(r/s): -7.668890868e-09 SQRT(A) (m 1/2): 5153.718262 Right Ascen at Week(rad): 0.4153769805 Argument of Perigee(rad): -2.36629532 Mean Anom(rad): -0.2995722916 Af0(s): -4.672780762e-05 Af1(s/s): -7.275958e-12 week: 147